Tracking 19969 objects as of 12-Nov-2019
Live streaming from Space Station
objects crossing your sky now
Track the group of recently launched Starlink satellites

THORAD DELTA 1 DEB

Track THORAD DELTA 1 DEB now!
10-day predictions


NORAD ID: 8175
Int'l Code: 1974-089AR
Perigee: 1,261.4 km
Apogee: 1,629.7 km
Inclination: 102.6 °
Period: 114.6 minutes
Semi major axis: 7816 km
RCS: 0.0392 m2 (small)
Launch date: November 15, 1974
Source: United States (US)
Launch site: AIR FORCE WESTERN TEST RANGE (AFWTR)

Note: This is SATELLITE DEBRIS
aabbcc
Your satellite tracking list
Your tracking list is empty




NASA's NSSDC Master Catalog

Two Line Element Set (TLE):
1  8175U 74089AR  19316.77361560  .00000867  00000-0  50120-2 0  9995
2  8175 102.6275  60.3271 0235597 244.3050 272.2785 12.56254576 26345
Source of the keplerian elements: AFSPC